Location: Kaltenbach
(49.2000°N, 7.7500°E)
Time: 09:13:16
(UTC+00:00)

Cosmos 44 - Pass Details

Date: 24 January 2020
Orbit: 595 x 767 km, 65.1° (Epoch: 16 February)

Event Time Altitude Azimuth Distance (km) Brightness Sun altitude
Rises 18:19:09 0° 223° (SW) 2,944 7.3 -20.6°
Reaches altitude 10° 18:21:29 10° 226° (SW) 2,013 6.4 -20.9°
Maximum altitude 18:26:00 72° 310° (NW) 652 3.2 -21.7°
Enters shadow 18:27:19 44° 22° (NNE) 852 3.5 -21.9°
